This is the latest recevied weather packets stored in our database for station/object WA0GMH-1. If no packets are shown the sender has not sent any weather packets the latest 10 day(s).
| Time | Temp. | Humidity | Pressure | Rain* | Wind** | Luminosity | Snow |
|---|---|---|---|---|---|---|---|
| 1777577584 | 13.33° C | 82% | 1019.7 hPa | 0 mm | - | - | - |
| 1777577181 | 13.33° C | 80% | 1019.7 hPa | 0 mm | - | - | - |
| 1777576779 | 13.33° C | 82% | 1019.9 hPa | 0 mm | - | - | - |
| 1777576376 | 13.33° C | 84% | 1019.9 hPa | 0 mm | - | - | - |
| 1777575975 | 13.33° C | 85% | 1019.9 hPa | 0 mm | - | - | - |
| 1777575572 | 13.33° C | 85% | 1019.8 hPa | 0 mm | - | - | - |
| 1777575170 | 12.78° C | 100% | 1019.8 hPa | 0 mm | - | - | - |
| 1777574767 | 12.78° C | 3% | 1020 hPa | 0 mm | - | - | - |
| 1777574366 | 12.78° C | 3% | 1020.2 hPa | 0 mm | - | - | - |
| 1777573963 | 12.78° C | 5% | 1020.2 hPa | 0 mm | - | - | - |
| 1777573561 | 12.22° C | 6% | 1020.2 hPa | 0 mm | - | - | - |
| 1777573158 | 12.22° C | 6% | 1020.3 hPa | 0 mm | - | - | - |
| 1777572757 | 12.22° C | 8% | 1020.2 hPa | 0 mm | - | - | - |
| 1777572354 | 11.67° C | 8% | 1020.5 hPa | 0 mm | - | - | - |
| 1777571952 | 11.67° C | 9% | 1020.4 hPa | 0 mm | - | - | - |
| 1777571549 | 11.67° C | 13% | 1020.4 hPa | 0 mm | - | - | - |
| 1777571148 | 11.11° C | 10% | 1020.5 hPa | 0 mm | - | - | - |
| 1777570745 | 11.11° C | 10% | 1020.6 hPa | 0 mm | - | - | - |
| 1777570343 | 11.11° C | 13% | 1020.5 hPa | 0 mm | - | - | - |
| 1777569940 | 11.11° C | 13% | 1020.6 hPa | 0 mm | - | - | - |
| 1777569539 | 11.11° C | 13% | 1020.6 hPa | 0 mm | - | - | - |
| 1777569136 | 11.11° C | 13% | 1020.6 hPa | 0 mm | - | - | - |
| 1777568734 | 10.56° C | 12% | 1020.7 hPa | 0 mm | - | - | - |
| 1777568332 | 10.56° C | 17% | 1020.7 hPa | 0 mm | - | - | - |
| 1777567930 | 10.56° C | 17% | 1020.9 hPa | 0 mm | - | - | - |
* Rain since midnight (hover to see other rain measurements)
** Current wind speed in m/s (hover to see current wind gust speed)